Time,TemperatureF,DewpointF,PressureIn,WindDirection,WindDirectionDegrees,WindSpeedMPH,WindSpeedGustMPH,Humidity,HourlyPrecipIn,Conditions,Clouds,dailyrainin,SoftwareType,DateUTC
2013-10-23 09:25:00,78.4,62.0,29.44,WNW,292,2.5,2.5,57,0.00,,---,0.39,VWS V14.01,2013-10-22 22:25:00,
2013-10-23 09:26:00,78.4,62.0,29.44,WNW,292,2.5,2.5,57,0.74,,---,0.00,VWS V14.01,2013-10-22 22:26:00,
2013-10-23 09:31:00,78.8,61.3,29.44,North,0,3.4,7.2,55,0.00,,---,0.00,VWS V14.01,2013-10-22 22:31:00,
2013-10-23 09:36:00,78.8,59.7,29.44,North,0,3.4,3.4,52,0.00,,---,0.00,VWS V14.01,2013-10-22 22:36:00,
2013-10-23 09:41:00,79.2,61.1,29.44,NNW,338,3.8,4.0,54,0.00,,---,0.00,VWS V14.01,2013-10-22 22:41:00,
2013-10-23 09:46:00,80.1,61.9,29.44,NW,315,4.7,4.7,54,0.00,,---,0.00,VWS V14.01,2013-10-22 22:46:00,
2013-10-23 09:51:00,80.4,61.7,29.44,NNW,338,2.0,2.0,53,0.00,,---,0.00,VWS V14.01,2013-10-22 22:51:00,
2013-10-23 09:56:00,81.7,61.8,29.44,ESE,112,0.0,0.0,51,0.00,,---,0.00,VWS V14.01,2013-10-22 22:56:00,
2013-10-23 10:01:00,82.4,62.5,29.44,West,270,5.8,5.8,51,0.00,,---,0.00,VWS V14.01,2013-10-22 23:01:00,
2013-10-23 10:06:00,83.5,61.2,29.44,NW,315,10.7,10.7,47,0.00,,---,0.00,VWS V14.01,2013-10-22 23:06:00,
2013-10-23 10:11:00,84.6,61.5,29.44,NW,315,8.5,8.5,46,0.00,,---,0.00,VWS V14.01,2013-10-22 23:11:00,
2013-10-23 10:16:00,85.5,61.1,29.41,NW,315,8.5,8.5,44,0.00,,---,0.00,VWS V14.01,2013-10-22 23:16:00,
2013-10-23 10:21:00,86.2,60.4,29.41,WSW,248,7.8,7.8,42,0.00,,---,0.00,VWS V14.01,2013-10-22 23:21:00,
2013-10-23 10:26:00,86.7,59.5,29.41,NW,315,12.1,17.5,40,0.00,,---,0.00,VWS V14.01,2013-10-22 23:26:00,
2013-10-23 10:31:00,87.3,60.0,29.41,WNW,292,13.6,13.6,40,0.00,,---,0.00,VWS V14.01,2013-10-22 23:31:00,
2013-10-23 10:36:00,88.0,60.0,29.41,North,0,3.6,9.4,39,0.00,,---,0.00,VWS V14.01,2013-10-22 23:36:00,
2013-10-23 10:41:00,88.7,60.6,29.41,North,0,4.7,10.5,39,0.00,,---,0.00,VWS V14.01,2013-10-22 23:41:00,
2013-10-23 10:46:00,89.2,61.1,29.41,NW,315,15.7,15.7,39,0.00,,---,0.00,VWS V14.01,2013-10-22 23:46:00,
2013-10-23 10:51:00,89.8,60.1,29.41,NW,315,10.1,10.1,37,0.00,,---,0.00,VWS V14.01,2013-10-22 23:51:00,
2013-10-23 10:56:00,90.0,58.7,29.41,West,270,6.3,6.3,35,0.00,,---,0.00,VWS V14.01,2013-10-22 23:56:00,
2013-10-23 11:01:00,90.7,60.1,29.41,WNW,292,9.8,9.8,36,0.00,,---,0.00,VWS V14.01,2013-10-23 00:01:00,
2013-10-23 11:06:00,91.0,58.8,29.41,NW,315,6.0,15.4,34,0.00,,---,0.00,VWS V14.01,2013-10-23 00:06:00,
2013-10-23 11:11:00,91.2,59.8,29.41,West,270,4.7,4.7,35,0.00,,---,0.00,VWS V14.01,2013-10-23 00:11:00,
2013-10-23 11:16:00,91.2,57.3,29.38,NNW,338,13.6,13.6,32,0.00,,---,0.00,VWS V14.01,2013-10-23 00:16:00,
2013-10-23 11:20:00,90.9,57.0,29.38,SW,225,6.3,12.3,32,0.00,,---,0.00,VWS V14.01,2013-10-23 00:20:00,
2013-10-23 11:26:00,91.0,54.4,29.38,NW,315,22.2,22.2,29,0.00,,---,0.00,VWS V14.01,2013-10-23 00:26:00,
2013-10-23 11:31:00,91.2,56.4,29.38,NW,315,6.3,17.7,31,0.00,,---,0.00,VWS V14.01,2013-10-23 00:31:00,
2013-10-23 11:36:00,91.8,56.0,29.38,West,270,7.8,7.8,30,0.00,,---,0.00,VWS V14.01,2013-10-23 00:36:00,
2013-10-23 11:41:00,92.1,55.3,29.38,West,270,12.8,13.0,29,0.00,,---,0.00,VWS V14.01,2013-10-23 00:41:00,
2013-10-23 11:46:00,92.5,56.6,29.38,WNW,292,7.6,13.0,30,0.00,,---,0.00,VWS V14.01,2013-10-23 00:46:00,
2013-10-23 11:51:00,92.8,57.8,29.38,NW,315,9.6,9.6,31,0.00,,---,0.00,VWS V14.01,2013-10-23 00:51:00,
2013-10-23 11:56:00,93.7,57.7,29.38,North,0,12.3,12.3,30,0.00,,---,0.00,VWS V14.01,2013-10-23 00:56:00,
2013-10-23 12:01:00,93.9,55.9,29.35,WNW,292,13.9,13.9,28,0.00,,---,0.00,VWS V14.01,2013-10-23 01:01:00,
2013-10-23 12:05:00,93.9,56.9,29.35,North,0,16.6,16.6,29,0.00,,---,0.00,VWS V14.01,2013-10-23 01:05:00,
2013-10-23 12:11:00,94.3,57.2,29.35,WNW,292,26.9,26.9,29,0.00,,---,0.00,VWS V14.01,2013-10-23 01:11:00,
2013-10-23 12:15:00,94.5,56.4,29.35,WNW,292,14.1,14.1,28,0.00,,---,0.00,VWS V14.01,2013-10-23 01:15:00,
2013-10-23 12:20:00,95.0,55.8,29.35,WNW,292,19.9,19.9,27,0.00,,---,0.00,VWS V14.01,2013-10-23 01:20:00,
2013-10-23 12:25:00,94.8,55.7,29.35,West,270,15.7,15.7,27,0.00,,---,0.00,VWS V14.01,2013-10-23 01:25:00,
2013-10-23 12:30:00,95.2,57.0,29.35,NW,315,12.3,12.3,28,0.00,,---,0.00,VWS V14.01,2013-10-23 01:30:00,
2013-10-23 12:35:00,95.2,56.0,29.35,SW,225,10.7,10.7,27,0.00,,---,0.00,VWS V14.01,2013-10-23 01:35:00,
2013-10-23 12:40:00,95.4,56.1,29.35,NW,315,10.5,10.5,27,0.00,,---,0.00,VWS V14.01,2013-10-23 01:40:00,
2013-10-23 12:45:00,95.5,56.3,29.35,NW,315,7.4,7.4,27,0.00,,---,0.00,VWS V14.01,2013-10-23 01:45:00,
2013-10-23 12:50:00,95.4,55.1,29.35,NW,315,7.4,7.4,26,0.00,,---,0.00,VWS V14.01,2013-10-23 01:50:00,
2013-10-23 12:55:00,95.7,56.4,29.35,NW,315,13.2,13.2,27,0.00,,---,0.00,VWS V14.01,2013-10-23 01:55:00,
2013-10-23 13:00:00,96.4,57.0,29.35,North,0,7.4,7.4,27,0.00,,---,0.00,VWS V14.01,2013-10-23 02:00:00,
2013-10-23 13:05:00,96.6,57.2,29.35,NW,315,11.0,11.0,27,0.00,,---,0.00,VWS V14.01,2013-10-23 02:05:00,
2013-10-23 13:10:00,96.8,57.3,29.35,NW,315,11.0,11.0,27,0.00,,---,0.00,VWS V14.01,2013-10-23 02:10:00,
2013-10-23 13:15:00,96.8,56.3,29.35,NW,315,16.3,16.3,26,0.00,,---,0.00,VWS V14.01,2013-10-23 02:15:00,
2013-10-23 13:20:00,97.0,57.5,29.35,West,270,10.5,10.5,27,0.00,,---,0.00,VWS V14.01,2013-10-23 02:20:00,
2013-10-23 13:26:00,97.0,56.4,29.35,WNW,292,7.8,11.4,26,0.00,,---,0.00,VWS V14.01,2013-10-23 02:26:00,
2013-10-23 13:30:00,97.2,56.6,29.32,WNW,292,7.8,7.8,26,0.00,,---,0.00,VWS V14.01,2013-10-23 02:30:00,
2013-10-23 13:35:00,97.0,57.5,29.32,NW,315,9.6,9.6,27,0.00,,---,0.00,VWS V14.01,2013-10-23 02:35:00,
2013-10-23 13:40:00,97.2,56.6,29.32,NW,315,11.2,11.2,26,0.00,,---,0.00,VWS V14.01,2013-10-23 02:40:00,
2013-10-23 13:45:00,97.2,56.6,29.32,NW,315,23.3,23.3,26,0.00,,---,0.00,VWS V14.01,2013-10-23 02:45:00,
2013-10-23 13:50:00,97.5,56.9,29.32,WNW,292,7.6,7.6,26,0.00,,---,0.00,VWS V14.01,2013-10-23 02:50:00,
2013-10-23 13:55:00,97.3,55.7,29.32,WNW,292,12.3,12.3,25,0.00,,---,0.00,VWS V14.01,2013-10-23 02:55:00,
2013-10-23 14:00:00,97.3,55.7,29.32,NW,315,15.9,15.9,25,0.00,,---,0.00,VWS V14.01,2013-10-23 03:00:00,
2013-10-23 14:05:00,97.2,53.2,29.32,NW,315,15.9,15.9,23,0.00,,---,0.00,VWS V14.01,2013-10-23 03:05:00,
2013-10-23 14:10:00,97.5,55.8,29.32,NW,315,15.9,15.9,25,0.00,,---,0.00,VWS V14.01,2013-10-23 03:10:00,
2013-10-23 14:15:00,97.3,55.7,29.32,NW,315,10.1,10.1,25,0.00,,---,0.00,VWS V14.01,2013-10-23 03:15:00,
2013-10-23 14:20:00,97.0,53.1,29.32,NW,315,14.5,14.5,23,0.00,,---,0.00,VWS V14.01,2013-10-23 03:20:00,
2013-10-23 14:25:00,97.5,55.8,29.32,NW,315,14.5,14.5,25,0.00,,---,0.00,VWS V14.01,2013-10-23 03:25:00,
2013-10-23 14:30:00,97.2,53.2,29.32,NW,315,14.5,14.5,23,0.00,,---,0.00,VWS V14.01,2013-10-23 03:30:00,
2013-10-23 14:35:00,97.2,53.2,29.32,NW,315,14.5,14.5,23,0.00,,---,0.00,VWS V14.01,2013-10-23 03:35:00,
2013-10-23 14:40:00,97.5,53.5,29.32,NW,315,14.5,14.5,23,0.00,,---,0.00,VWS V14.01,2013-10-23 03:40:00,
2013-10-23 14:45:00,97.9,53.8,29.32,NW,315,14.5,14.5,23,0.00,,---,0.00,VWS V14.01,2013-10-23 03:45:00,
2013-10-23 14:50:00,97.9,53.8,29.32,NW,315,14.5,14.5,23,0.00,,---,0.00,VWS V14.01,2013-10-23 03:50:00,
2013-10-23 14:55:00,97.9,53.8,29.32,NW,315,14.5,14.5,23,0.00,,---,0.00,VWS V14.01,2013-10-23 03:55:00,
2013-10-23 15:00:00,97.5,49.7,29.32,NW,315,14.5,14.5,20,0.00,,---,0.00,VWS V14.01,2013-10-23 04:00:00,
2013-10-23 15:01:00,97.5,49.7,29.32,NW,315,14.5,14.5,20,0.00,,---,0.00,VWS V14.01,2013-10-23 04:01:00,
2013-10-23 15:02:00,97.5,49.7,29.32,NW,315,14.5,14.5,20,0.00,,---,0.00,VWS V14.01,2013-10-23 04:02:00,
2013-10-23 15:07:00,97.3,50.9,29.32,West,270,6.5,6.5,21,0.00,,---,0.00,VWS V14.01,2013-10-23 04:07:00,
2013-10-23 15:12:00,97.2,52.0,29.32,WNW,292,7.4,7.4,22,0.00,,---,0.00,VWS V14.01,2013-10-23 04:12:00,
2013-10-23 15:17:00,97.0,50.6,29.32,NW,315,9.0,12.5,21,0.00,,---,0.00,VWS V14.01,2013-10-23 04:17:00,
2013-10-23 15:22:00,97.0,50.6,29.32,NW,315,12.8,12.8,21,0.00,,---,0.00,VWS V14.01,2013-10-23 04:22:00,
2013-10-23 15:27:00,97.0,51.9,29.32,WNW,292,6.5,6.5,22,0.00,,---,0.00,VWS V14.01,2013-10-23 04:27:00,
2013-10-23 15:32:00,97.0,50.6,29.32,West,270,7.8,7.8,21,0.00,,---,0.00,VWS V14.01,2013-10-23 04:32:00,
2013-10-23 15:37:00,97.2,52.0,29.32,WNW,292,6.5,6.5,22,0.00,,---,0.00,VWS V14.01,2013-10-23 04:37:00,
2013-10-23 15:42:00,96.8,50.5,29.32,West,270,10.1,10.1,21,0.00,,---,0.00,VWS V14.01,2013-10-23 04:42:00,
2013-10-23 15:47:00,96.8,50.5,29.32,West,270,9.4,9.4,21,0.00,,---,0.00,VWS V14.01,2013-10-23 04:47:00,
2013-10-23 15:52:00,96.6,50.3,29.32,WNW,292,14.8,14.8,21,0.00,,---,0.00,VWS V14.01,2013-10-23 04:52:00,
2013-10-23 15:57:00,96.4,48.9,29.32,NW,315,10.3,10.3,20,0.00,,---,0.00,VWS V14.01,2013-10-23 04:57:00,
2013-10-23 16:02:00,96.1,48.6,29.32,WNW,292,9.8,9.8,20,0.00,,---,0.00,VWS V14.01,2013-10-23 05:02:00,
2013-10-23 16:06:00,96.3,48.7,29.32,West,270,11.9,11.9,20,0.00,,---,0.00,VWS V14.01,2013-10-23 05:06:00,
2013-10-23 16:11:00,95.9,48.4,29.32,NW,315,3.8,11.0,20,0.00,,---,0.00,VWS V14.01,2013-10-23 05:11:00,
2013-10-23 16:16:00,95.7,48.3,29.32,NW,315,8.7,8.7,20,0.00,,---,0.00,VWS V14.01,2013-10-23 05:16:00,
2013-10-23 16:21:00,95.4,48.0,29.32,WNW,292,10.3,10.7,20,0.00,,---,0.00,VWS V14.01,2013-10-23 05:21:00,
2013-10-23 16:26:00,95.4,48.0,29.32,West,270,7.6,7.6,20,0.00,,---,0.00,VWS V14.01,2013-10-23 05:26:00,
2013-10-23 16:31:00,95.0,46.3,29.32,WNW,292,5.6,5.6,19,0.00,,---,0.00,VWS V14.01,2013-10-23 05:31:00,
2013-10-23 16:36:00,94.6,46.0,29.32,West,270,5.6,5.6,19,0.00,,---,0.00,VWS V14.01,2013-10-23 05:36:00,
2013-10-23 16:41:00,94.6,47.4,29.32,WNW,292,10.1,12.8,20,0.00,,---,0.00,VWS V14.01,2013-10-23 05:41:00,
2013-10-23 16:46:00,94.5,47.2,29.35,NW,315,6.3,6.3,20,0.00,,---,0.00,VWS V14.01,2013-10-23 05:46:00,
2013-10-23 16:51:00,94.1,47.0,29.35,NW,315,8.5,8.5,20,0.00,,---,0.00,VWS V14.01,2013-10-23 05:51:00,
2013-10-23 16:56:00,93.7,45.3,29.35,WNW,292,11.0,11.0,19,0.00,,---,0.00,VWS V14.01,2013-10-23 05:56:00,
2013-10-23 17:01:00,93.6,45.2,29.35,West,270,10.5,10.5,19,0.00,,---,0.00,VWS V14.01,2013-10-23 06:01:00,
2013-10-23 17:07:00,93.4,46.4,29.35,West,270,7.8,11.0,20,0.00,,---,0.00,VWS V14.01,2013-10-23 06:07:00,
2013-10-23 17:12:00,93.2,46.2,29.35,West,270,5.8,5.8,20,0.00,,---,0.00,VWS V14.01,2013-10-23 06:12:00,
2013-10-23 17:17:00,93.0,46.1,29.35,NW,315,7.6,10.3,20,0.00,,---,0.00,VWS V14.01,2013-10-23 06:17:00,
2013-10-23 17:22:00,92.8,45.9,29.35,West,270,16.1,16.1,20,0.00,,---,0.00,VWS V14.01,2013-10-23 06:22:00,
2013-10-23 17:27:00,92.7,45.8,29.35,WNW,292,6.5,6.5,20,0.00,,---,0.00,VWS V14.01,2013-10-23 06:27:00,
2013-10-23 17:32:00,92.5,45.6,29.35,NNW,338,6.3,8.5,20,0.00,,---,0.00,VWS V14.01,2013-10-23 06:32:00,
2013-10-23 17:37:00,92.3,45.5,29.35,WNW,292,3.8,4.0,20,0.00,,---,0.00,VWS V14.01,2013-10-23 06:37:00,
2013-10-23 17:42:00,91.9,43.8,29.35,NW,315,3.6,3.6,19,0.00,,---,0.00,VWS V14.01,2013-10-23 06:42:00,
2013-10-23 17:47:00,91.8,45.0,29.35,West,270,9.6,9.6,20,0.00,,---,0.00,VWS V14.01,2013-10-23 06:47:00,
2013-10-23 17:52:00,91.2,44.6,29.35,West,270,6.3,6.3,20,0.00,,---,0.00,VWS V14.01,2013-10-23 06:52:00,
2013-10-23 17:57:00,91.0,43.1,29.35,WNW,292,9.8,9.8,19,0.00,,---,0.00,VWS V14.01,2013-10-23 06:57:00,
2013-10-23 18:02:00,91.0,44.4,29.38,WNW,292,6.3,6.3,20,0.00,,---,0.00,VWS V14.01,2013-10-23 07:02:00,
2013-10-23 18:07:00,90.7,44.1,29.38,West,270,5.8,5.8,20,0.00,,---,0.00,VWS V14.01,2013-10-23 07:07:00,
2013-10-23 18:12:00,90.7,44.1,29.38,West,270,5.8,5.8,20,0.00,,---,0.00,VWS V14.01,2013-10-23 07:12:00,
2013-10-23 18:17:00,90.5,44.0,29.38,NW,315,5.8,5.8,20,0.00,,---,0.00,VWS V14.01,2013-10-23 07:17:00,
2013-10-23 18:22:00,90.1,43.7,29.38,North,0,3.1,3.1,20,0.00,,---,0.00,VWS V14.01,2013-10-23 07:22:00,
2013-10-23 18:27:00,89.8,43.4,29.38,NW,315,7.4,7.4,20,0.00,,---,0.00,VWS V14.01,2013-10-23 07:27:00,
2013-10-23 18:32:00,89.6,43.3,29.38,West,270,2.7,2.9,20,0.00,,---,0.00,VWS V14.01,2013-10-23 07:32:00,
2013-10-23 18:37:00,89.2,43.0,29.38,West,270,1.3,1.3,20,0.00,,---,0.00,VWS V14.01,2013-10-23 07:37:00,
2013-10-23 18:42:00,88.9,42.7,29.38,SW,225,2.9,4.9,20,0.00,,---,0.00,VWS V14.01,2013-10-23 07:42:00,
2013-10-23 18:47:00,88.5,42.4,29.41,West,270,6.3,6.3,20,0.00,,---,0.00,VWS V14.01,2013-10-23 07:47:00,
2013-10-23 18:52:00,88.2,42.1,29.41,West,270,0.9,0.9,20,0.00,,---,0.00,VWS V14.01,2013-10-23 07:52:00,
2013-10-23 18:57:00,87.8,41.8,29.41,ESE,112,3.1,4.7,20,0.00,,---,0.00,VWS V14.01,2013-10-23 07:57:00,
2013-10-23 19:02:00,87.4,41.5,29.41,SW,225,1.1,2.5,20,0.00,,---,0.00,VWS V14.01,2013-10-23 08:02:00,
2013-10-23 19:07:00,87.1,41.2,29.41,West,270,3.1,3.1,20,0.00,,---,0.00,VWS V14.01,2013-10-23 08:07:00,
2013-10-23 19:12:00,86.9,42.3,29.41,SW,225,7.8,7.8,21,0.00,,---,0.00,VWS V14.01,2013-10-23 08:12:00,
2013-10-23 19:17:00,86.2,40.5,29.44,SW,225,3.1,3.1,20,0.00,,---,0.00,VWS V14.01,2013-10-23 08:17:00,
2013-10-23 19:22:00,85.8,41.4,29.44,WSW,248,2.9,2.9,21,0.00,,---,0.00,VWS V14.01,2013-10-23 08:22:00,
2013-10-23 19:27:00,85.5,41.1,29.44,SE,135,2.0,2.9,21,0.00,,---,0.00,VWS V14.01,2013-10-23 08:27:00,
2013-10-23 19:32:00,85.1,40.8,29.44,WSW,248,3.4,3.4,21,0.00,,---,0.00,VWS V14.01,2013-10-23 08:32:00,
2013-10-23 19:37:00,84.6,39.1,29.44,East,90,3.4,4.0,20,0.00,,---,0.00,VWS V14.01,2013-10-23 08:37:00,
2013-10-23 19:42:00,84.4,39.0,29.44,SE,135,1.6,1.6,20,0.00,,---,0.00,VWS V14.01,2013-10-23 08:42:00,
2013-10-23 19:47:00,83.8,39.8,29.47,SE,135,0.0,0.0,21,0.00,,---,0.00,VWS V14.01,2013-10-23 08:47:00,
2013-10-23 19:52:00,82.4,40.9,29.47,ENE,68,3.4,3.4,23,0.00,,---,0.00,VWS V14.01,2013-10-23 08:52:00,
2013-10-23 19:57:00,80.2,48.5,29.47,SE,135,0.0,2.7,33,0.00,,---,0.00,VWS V14.01,2013-10-23 08:57:00,
2013-10-23 20:02:00,78.4,53.5,29.47,SSE,158,2.9,2.9,42,0.00,,---,0.00,VWS V14.01,2013-10-23 09:02:00,
2013-10-23 20:07:00,77.4,54.4,29.47,NE,45,1.1,1.1,45,0.00,,---,0.00,VWS V14.01,2013-10-23 09:07:00,
2013-10-23 20:12:00,77.0,54.7,29.47,ENE,68,0.9,3.1,46,0.00,,---,0.00,VWS V14.01,2013-10-23 09:12:00,
2013-10-23 20:17:00,76.1,55.0,29.47,SSE,158,4.9,4.9,48,0.00,,---,0.00,VWS V14.01,2013-10-23 09:17:00,
2013-10-23 20:21:00,75.4,56.0,29.47,ENE,68,2.7,2.7,51,0.00,,---,0.00,VWS V14.01,2013-10-23 09:21:00,
2013-10-23 20:26:00,74.7,56.9,29.47,East,90,0.0,0.0,54,0.00,,---,0.00,VWS V14.01,2013-10-23 09:26:00,
2013-10-23 20:31:00,74.5,56.2,29.50,SE,135,2.0,2.0,53,0.00,,---,0.00,VWS V14.01,2013-10-23 09:31:00,
2013-10-23 20:36:00,74.1,55.9,29.50,East,90,1.6,1.6,53,0.00,,---,0.00,VWS V14.01,2013-10-23 09:36:00,
2013-10-23 20:41:00,73.8,57.1,29.50,East,90,0.9,0.9,56,0.00,,---,0.00,VWS V14.01,2013-10-23 09:41:00,
2013-10-23 20:46:00,73.2,57.1,29.50,East,90,0.0,0.0,57,0.00,,---,0.00,VWS V14.01,2013-10-23 09:46:00,
2013-10-23 20:51:00,73.0,55.9,29.50,ENE,68,0.0,0.0,55,0.00,,---,0.00,VWS V14.01,2013-10-23 09:51:00,
2013-10-23 20:56:00,72.5,56.9,29.50,SE,135,4.3,4.3,58,0.00,,---,0.00,VWS V14.01,2013-10-23 09:56:00,
2013-10-23 21:02:00,72.5,55.9,29.53,ENE,68,0.0,0.0,56,0.00,,---,0.00,VWS V14.01,2013-10-23 10:02:00,
2013-10-23 21:07:00,72.3,55.8,29.53,ENE,68,0.0,0.0,56,0.00,,---,0.00,VWS V14.01,2013-10-23 10:07:00,
2013-10-23 21:12:00,72.0,55.9,29.53,East,90,0.0,0.0,57,0.00,,---,0.00,VWS V14.01,2013-10-23 10:12:00,
2013-10-23 21:17:00,71.8,55.3,29.53,East,90,1.3,1.3,56,0.00,,---,0.00,VWS V14.01,2013-10-23 10:17:00,
2013-10-23 21:22:00,71.4,56.4,29.53,East,90,0.0,0.0,59,0.00,,---,0.00,VWS V14.01,2013-10-23 10:22:00,
2013-10-23 21:27:00,71.6,55.1,29.53,East,90,0.0,0.0,56,0.00,,---,0.00,VWS V14.01,2013-10-23 10:27:00,
2013-10-23 21:31:00,71.6,53.6,29.53,South,180,0.0,0.0,53,0.00,,---,0.00,VWS V14.01,2013-10-23 10:31:00,
2013-10-23 21:36:00,71.6,53.1,29.53,West,270,0.0,0.0,52,0.00,,---,0.00,VWS V14.01,2013-10-23 10:36:00,
2013-10-23 21:41:00,72.0,52.9,29.53,ENE,68,0.0,0.0,51,0.00,,---,0.00,VWS V14.01,2013-10-23 10:41:00,
2013-10-23 21:46:00,72.0,52.9,29.53,East,90,0.0,0.0,51,0.00,,---,0.00,VWS V14.01,2013-10-23 10:46:00,
2013-10-23 21:51:00,72.0,52.9,29.53,North,0,0.0,0.0,51,0.00,,---,0.00,VWS V14.01,2013-10-23 10:51:00,
2013-10-23 21:56:00,72.0,52.9,29.53,North,0,0.0,0.0,51,0.00,,---,0.00,VWS V14.01,2013-10-23 10:56:00,
2013-10-23 22:01:00,72.1,53.6,29.56,North,0,0.0,0.0,52,0.00,,---,0.00,VWS V14.01,2013-10-23 11:01:00,
2013-10-23 22:06:00,72.1,53.0,29.56,North,0,0.0,0.0,51,0.00,,---,0.00,VWS V14.01,2013-10-23 11:06:00,
2013-10-23 22:11:00,72.1,52.5,29.56,WNW,292,0.0,0.0,50,0.00,,---,0.00,VWS V14.01,2013-10-23 11:11:00,
2013-10-23 22:16:00,72.0,52.3,29.53,NW,315,1.6,1.6,50,0.00,,---,0.00,VWS V14.01,2013-10-23 11:16:00,
2013-10-23 22:21:00,72.1,53.0,29.53,NNE,22,0.0,0.0,51,0.00,,---,0.00,VWS V14.01,2013-10-23 11:21:00,
2013-10-23 22:26:00,72.0,52.3,29.53,ENE,68,0.0,0.0,50,0.00,,---,0.00,VWS V14.01,2013-10-23 11:26:00,
2013-10-23 22:31:00,72.0,52.3,29.56,NW,315,0.0,0.0,50,0.00,,---,0.00,VWS V14.01,2013-10-23 11:31:00,
2013-10-23 22:36:00,72.0,52.3,29.56,NE,45,0.0,0.0,50,0.00,,---,0.00,VWS V14.01,2013-10-23 11:36:00,
2013-10-23 22:41:00,71.8,52.2,29.56,NW,315,0.0,0.0,50,0.00,,---,0.00,VWS V14.01,2013-10-23 11:41:00,
2013-10-23 22:46:00,71.8,52.2,29.56,NW,315,0.0,0.0,50,0.00,,---,0.00,VWS V14.01,2013-10-23 11:46:00,
2013-10-23 22:51:00,71.8,52.2,29.56,ENE,68,0.0,0.0,50,0.00,,---,0.00,VWS V14.01,2013-10-23 11:51:00,
2013-10-23 22:56:00,71.8,52.2,29.56,West,270,2.2,2.2,50,0.00,,---,0.00,VWS V14.01,2013-10-23 11:56:00,
2013-10-23 23:01:00,71.8,52.2,29.56,NNE,22,0.0,0.0,50,0.00,,---,0.00,VWS V14.01,2013-10-23 12:01:00,
2013-10-23 23:06:00,71.8,52.7,29.56,NW,315,0.0,0.0,51,0.00,,---,0.00,VWS V14.01,2013-10-23 12:06:00,
2013-10-23 23:11:00,71.6,52.0,29.56,NNW,338,0.0,0.0,50,0.00,,---,0.00,VWS V14.01,2013-10-23 12:11:00,
2013-10-23 23:16:00,71.4,51.8,29.56,NNW,338,0.0,0.0,50,0.00,,---,0.00,VWS V14.01,2013-10-23 12:16:00,
2013-10-23 23:21:00,71.2,52.2,29.56,North,0,0.0,0.0,51,0.00,,---,0.00,VWS V14.01,2013-10-23 12:21:00,
2013-10-23 23:26:00,71.2,52.2,29.56,North,0,0.0,0.0,51,0.00,,---,0.00,VWS V14.01,2013-10-23 12:26:00,
2013-10-23 23:31:00,71.2,52.2,29.56,NW,315,0.0,0.0,51,0.00,,---,0.00,VWS V14.01,2013-10-23 12:31:00,
2013-10-23 23:36:00,71.1,52.0,29.56,NE,45,0.0,0.0,51,0.00,,---,0.00,VWS V14.01,2013-10-23 12:36:00,
2013-10-23 23:41:00,71.1,52.0,29.56,NNW,338,0.0,0.0,51,0.00,,---,0.00,VWS V14.01,2013-10-23 12:41:00,
2013-10-23 23:46:00,70.9,51.9,29.56,NW,315,0.0,0.0,51,0.00,,---,0.00,VWS V14.01,2013-10-23 12:46:00,
2013-10-23 23:51:00,70.9,51.9,29.56,ENE,68,0.0,0.0,51,0.00,,---,0.00,VWS V14.01,2013-10-23 12:51:00,
2013-10-23 23:56:00,70.7,51.7,29.56,WNW,292,0.0,0.0,51,0.00,,---,0.00,VWS V14.01,2013-10-23 12:56:00,